Home > Weather > Rafsanjan > Past weeks

Flag for Iran Weather for the Past 2 Weeks in Rafsanjan, Iran

Now
50 °F

Sunny.


Feels Like: 50 °F
Forecast: 29 / 62 °F
Wind: No wind

Location: Kerman Airport

Current Time: Feb 14, 2016 at 10:38:43 AM

Latest Report: Feb 14, 2016 at 10:00 AM


Visibility: 10 mi

Pressure: 30.24 "Hg (25.19 "Hg at 1515m altitude)

Humidity: 37%

Dew point: 25 °F

Location of RafsanjanLocation

Historic Weather in Rafsanjan — Graph

°F

Rafsanjan Temperature Yesterday

Maximum temperature yesterday: 55 °F (at 3:30 PM)
Minimum temperature yesterday: 25 °F (at 5:30 AM)
Average temperature yesterday: 41 °F

High & Low Weather Summary for the Past Weeks

 TemperatureHumidityPressure
High72 °F (Feb 7, 1:30 PM)100% (Feb 11, 9:30 PM)30.48 "Hg (Feb 11, 9:30 PM)
Low18 °F (Feb 11, 5:30 AM)0% (Feb 6, 1:30 PM)29.89 "Hg (Feb 11, 2:30 PM)
Average42 °F36%30.18 "Hg
* Reported Jan 30 9:30 AM — Feb 14 9:30 AM, Rafsanjan, Weather by CustomWeather, © 2016

Note: Actual official high and low records may vary slightly from our data, if they occured in-between our weather recording intervals... More about our weather records

Advertising

Rafsanjan Weather History for the Previous 24 Hours

 ConditionsComfort  
Time TempWeatherWind HumidityBarometerVisibility
9:30 AM
Sun, Feb 14
50 °FSunny.No wind37%30.27 "Hg10 mi
8:30 AM36 °FSunny.7 mph65%30.24 "Hg10 mi
8:00 AM34 °FSunny.5 mph70%30.24 "Hg10 mi
7:30 AM32 °FSunny.5 mph75%30.24 "Hg10 mi
6:30 AM27 °FClear.No wind80%30.21 "Hg10 mi
5:30 AM27 °FClear.5 mph80%30.21 "Hg10 mi
4:20 AM27 °FClear.5 mph86%30.21 "Hg10 mi
3:30 AM28 °FClear.No wind80%30.18 "Hg10 mi
2:30 AM28 °FClear.5 mph80%30.18 "Hg10 mi
1:30 AM28 °FClear.No wind80%30.21 "Hg10 mi
12:30 AM32 °FClear.5 mph69%30.21 "Hg10 mi
11:30 PM
Sat, Feb 13
36 °FClear.No wind60%30.21 "Hg10 mi
10:30 PM36 °FClear.No wind60%30.18 "Hg10 mi
9:30 PM39 °FClear.7 mph52%30.21 "Hg10 mi
8:30 PM41 °FClear.7 mph42%30.18 "Hg10 mi
7:30 PM43 °FClear.7 mph42%30.18 "Hg10 mi
6:30 PM46 °FClear.7 mph32%30.15 "Hg10 mi
5:30 PM52 °FSunny.7 mph24%30.15 "Hg10 mi
4:30 PM54 °FSunny.5 mph24%30.12 "Hg10 mi
3:30 PM55 °FSunny.5 mph23%30.12 "Hg10 mi
2:30 PM54 °FSunny.No wind26%30.15 "Hg10 mi
1:30 PM52 °FSunny.7 mph24%30.15 "Hg10 mi
12:30 PM50 °FSunny.5 mph25%30.18 "Hg10 mi
11:30 AM48 °FSunny.5 mph29%30.21 "Hg10 mi
11:00 AM48 °FSunny.5 mph34%30.21 "Hg10 mi
10:30 AM48 °FSunny.5 mph43%30.24 "Hg10 mi
10:00 AM45 °FSunny.No wind61%30.24 "Hg10 mi
Weather by CustomWeather, © 2016

See weather overviewHow to use our weather pages